Location: Partizánske
(48.6285°N, 18.3769°E)
Time: 17:34:58
(UTC+02:00)

Explorer 7 - Visible Passes

Search period start: 29 June 2022 00:00
Search period end: 09 July 2022 00:00
Orbit: 482 x 669 km, 50.3° (Epoch: 28 June)

Date Brightness Start Highest point End Pass type
(mag) Time Alt. Az. Time Alt. Az. Time Alt. Az.
29 Jun 7.0 01:20:43 11° WSW 01:25:19 85° SSE 01:29:58 10° ENE visible
29 Jun 7.4 03:01:14 10° W 03:05:58 71° N 03:10:26 10° E visible
29 Jun 9.2 22:09:06 11° ESE 22:09:06 11° ESE 22:09:32 10° ESE visible
29 Jun 7.5 23:45:04 21° SSW 23:47:49 42° SSE 23:52:17 10° ENE visible
30 Jun 7.1 01:23:19 10° WSW 01:28:10 84° NNW 01:32:48 10° ENE visible
30 Jun 7.3 03:04:07 10° W 03:08:51 74° N 03:13:20 10° E visible
30 Jun 8.7 22:07:45 10° S 22:10:45 16° SE 22:13:44 10° E visible
30 Jun 7.2 23:45:48 10° SW 23:50:33 55° SSE 23:55:11 10° ENE visible
01 Jul 7.3 01:26:12 10° W 01:31:01 76° N 01:35:39 10° ENE visible
01 Jul 7.2 03:06:58 10° WNW 03:11:44 82° NNE 03:16:12 10° E visible
01 Jul 8.3 22:09:31 10° S 22:13:19 23° SE 22:17:06 10° E visible
01 Jul 7.1 23:48:29 10° WSW 23:53:19 70° SSE 23:58:02 10° ENE visible
02 Jul 7.4 01:29:05 10° W 01:33:54 72° N 01:38:31 10° E visible
02 Jul 7.0 03:09:49 10° WNW 03:14:34 87° SSW 03:19:03 10° ESE visible
02 Jul 7.9 22:11:39 10° SSW 22:15:56 32° SE 22:20:11 10° E visible
02 Jul 7.1 23:51:15 10° WSW 23:56:07 85° SSE 00:00:52 10° ENE visible
03 Jul 7.4 01:31:58 10° W 01:36:47 71° N 01:41:24 10° E visible
03 Jul 7.0 03:12:39 10° WNW 03:17:22 72° SSW 03:21:49 10° ESE visible
03 Jul 7.5 22:14:01 10° SW 22:18:36 42° SSE 22:23:09 10° ENE visible
03 Jul 7.2 23:54:04 10° WSW 23:58:57 84° NNW 00:03:42 10° ENE visible
04 Jul 7.3 01:34:50 10° W 01:39:40 75° N 01:44:17 10° E visible
04 Jul 7.1 03:15:30 10° WNW 03:20:08 56° SSW 03:24:30 10° SE visible
04 Jul 7.3 22:16:33 10° SW 22:21:19 56° SSE 22:26:02 10° ENE visible
04 Jul 7.3 23:56:55 10° W 00:01:48 76° N 00:06:33 10° ENE visible
05 Jul 7.2 01:37:41 10° WNW 01:42:31 82° NNE 01:47:08 10° E visible
05 Jul 7.4 03:18:23 10° WNW 03:22:50 42° SSW 03:27:03 10° SE visible
05 Jul 7.1 22:19:13 10° WSW 22:24:04 71° SSE 22:28:52 10° ENE visible
05 Jul 7.4 23:59:48 10° W 00:04:40 72° N 00:09:24 10° E visible
06 Jul 7.0 01:40:31 10° WNW 01:45:21 87° SSW 01:49:58 10° ESE visible
06 Jul 7.8 03:21:20 10° W 03:25:29 31° SW 03:29:26 10° SSE visible
06 Jul 7.2 22:21:58 10° WSW 22:26:51 85° SSE 22:31:41 10° ENE visible
07 Jul 7.4 00:02:40 10° W 00:07:33 72° N 00:12:16 10° E visible
07 Jul 7.0 01:43:20 10° WNW 01:48:08 72° SSW 01:52:43 10° ESE visible
07 Jul 8.2 03:24:24 10° W 03:28:04 23° SW 03:31:35 10° S visible
07 Jul 7.3 22:24:47 10° WSW 22:29:41 83° NNW 22:34:31 10° ENE visible
08 Jul 7.3 00:05:32 10° W 00:10:24 75° N 00:15:08 10° E visible
08 Jul 7.1 01:46:11 10° WNW 01:50:53 57° SSW 01:55:24 10° SE visible
08 Jul 8.6 03:27:45 10° W 03:30:35 16° SW 03:32:41 12° SSW visible
08 Jul 7.4 22:27:38 10° W 22:32:31 76° N 22:37:20 10° ENE visible
